Weather History for Fallon NAS, NV

Change the Weather History Date:

Friday, February 22, 2013

  Actual Average Record
Temperature  
Mean Temperature 34 °F -  
Max Temperature 50 °F 54 °F 69 °F (1958)
Min Temperature 19 °F 24 °F 9 °F (1975)
Degree Days  
Heating Degree Days 30    
Moisture  
Dew Point 15 °F    
Average Humidity 44    
Maximum Humidity 68    
Minimum Humidity 27    
Precipitation  
Precipitation 0.05 in - - ()
Sea Level Pressure  
Sea Level Pressure 30.02 in    
Wind  
Wind Speed 3 mph (SSE)    
Max Wind Speed 10 mph    
Max Gust Speed -    
Visibility 10 miles    
Events      
Averages and records for this station are not official NWS values.
T = Trace of Precipitation, MM = Missing Value Source: NWS Daily Summary

Daily Weather History Graph

Daily Weather History Graph

Search for Another Location

Airport:

Trip Planner

Search our weather history database for the weather conditions in past years. The results will help you decide how hot, cold, wet, or windy it might be!

Date:

Astronomy

Feb. 22, 2013 Rise Set
Actual Time 6:37 AM PST 5:39 PM PST
Civil Twilight 6:09 AM PST 6:07 PM PST
Nautical Twilight 5:38 AM PST 6:38 PM PST
Astronomical Twilight 5:07 AM PST 7:09 PM PST
Moon 2:56 PM PST (2/22) 4:24 AM PST (2/22)
Length of Visible Light 11h 57m
Length of Day
11h 02m
Waxing Gibbous, 91% of the Moon is Illuminated
Feb 22
Waxing Gibbous
Feb 25
Full
Mar 4
Last Quarter
Mar 11
New
Mar 19
First Quarter

Hourly Weather History & Observations

Time (PST) Temp. Windchill Dew Point Humidity Pressure Visibility Wind Dir Wind Speed Gust Speed Precip Events Conditions
12:56 AM 30.0 °F - 14.0 °F 51% 30.01 in 10.0 mi Calm Calm - N/A   Scattered Clouds
1:56 AM 25.0 °F - 9.0 °F 51% 30.02 in 10.0 mi Calm Calm - N/A   Clear
2:56 AM 28.0 °F - 15.1 °F 58% 30.03 in 10.0 mi Calm Calm - N/A   Clear
3:56 AM 23.0 °F - 10.0 °F 58% 30.03 in 10.0 mi Calm Calm - N/A   Clear
4:56 AM 23.0 °F 14.7 °F 12.0 °F 63% 30.05 in 10.0 mi WSW 6.9 mph - N/A   Clear
5:56 AM 19.0 °F 11.1 °F 10.0 °F 68% 30.06 in 10.0 mi SE 5.8 mph - N/A   Clear
6:15 AM 19.4 °F 12.8 °F 8.6 °F 63% 30.17 in 10.0 mi SSE 4.6 mph - N/A   Scattered Clouds
6:56 AM 19.0 °F 10.0 °F 9.0 °F 65% 30.07 in 10.0 mi SSE 6.9 mph - N/A   Mostly Cloudy
7:56 AM 28.0 °F - 17.1 °F 63% 30.10 in 10.0 mi Calm Calm - N/A   Overcast
8:56 AM 36.0 °F 32.1 °F 19.9 °F 52% 30.11 in 10.0 mi South 4.6 mph - N/A   Overcast
9:56 AM 39.9 °F - 19.0 °F 43% 30.10 in 10.0 mi Calm Calm - N/A   Overcast
10:56 AM 43.0 °F - 21.0 °F 42% 30.10 in 10.0 mi Calm Calm - N/A   Mostly Cloudy
11:56 AM 44.1 °F 42.5 °F 21.0 °F 40% 30.09 in 10.0 mi Variable 3.5 mph - N/A   Mostly Cloudy
12:56 PM 48.0 °F - 19.9 °F 33% 30.06 in 10.0 mi Calm Calm - 0.05 in   Overcast
1:56 PM 48.9 °F - 19.9 °F 32% 30.03 in 10.0 mi Calm Calm - N/A   Overcast
2:56 PM 50.0 °F - 18.0 °F 28% 30.01 in 10.0 mi SW 4.6 mph - N/A   Overcast
3:56 PM 50.0 °F - 17.1 °F 27% 29.99 in 10.0 mi ESE 4.6 mph - N/A   Overcast
4:56 PM 50.0 °F - 17.1 °F 27% 29.97 in 10.0 mi ESE 6.9 mph - N/A   Overcast
5:56 PM 45.0 °F 41.2 °F 16.0 °F 31% 29.97 in 10.0 mi SE 6.9 mph - N/A   Mostly Cloudy
6:56 PM 44.1 °F 38.6 °F 16.0 °F 32% 29.94 in 10.0 mi SE 10.4 mph - N/A   Overcast
7:56 PM 44.1 °F 39.5 °F 15.1 °F 31% 29.95 in 10.0 mi SSE 8.1 mph - N/A   Overcast
8:56 PM 42.1 °F 37.1 °F 14.0 °F 32% 29.96 in 10.0 mi SSE 8.1 mph - N/A   Overcast
9:56 PM 44.1 °F 38.6 °F 16.0 °F 32% 29.92 in 10.0 mi South 10.4 mph - N/A   Overcast
10:56 PM 41.0 °F 37.1 °F 15.1 °F 35% 29.93 in 10.0 mi South 5.8 mph - N/A   Clear
11:56 PM 41.0 °F 35.2 °F 14.0 °F 33% 29.91 in 10.0 mi South 9.2 mph - N/A   Scattered Clouds